Home   Weather   Charlottetown   Past weeks

Flag for Canada Past Weather in Charlottetown, Prince Edward Island, Canada — Yesterday and Last 2 Weeks

Now
41 °F

Light rain. Mostly cloudy.


Feels Like: 36 °F
Forecast: 32 / 42 °F
Wind: 7 mph from Southwest

Location: Charlottetown

Current Time: Feb 25, 2017 at 12:48:51 am

Latest Report: Feb 24, 2017 at 11:00 pm


Visibility: 10 mi

Pressure: 29.92 "Hg

Humidity: 93%

Dew Point: 39 °F

Location of CharlottetownLocation

Past Weather in Charlottetown — Graph

°F

Charlottetown Temperature Yesterday

Maximum temperature yesterday: 48 °F (at 3:00 pm)
Minimum temperature yesterday: 37 °F (at 12:00 am)
Average temperature yesterday: 42 °F

High & Low Weather Summary for the Past Weeks

 TemperatureHumidityPressure
High48 °F (Feb 24, 3:00 pm)100% (Feb 13, 3:00 pm)30.38 "Hg (Feb 13, 3:00 pm)
Low-9 °F (Feb 12, 5:00 am)47% (Feb 18, 6:00 pm)28.61 "Hg (Feb 16, 2:08 pm)
Average25 °F80%29.70 "Hg
* Reported Feb 9 11:20 pm — Feb 24 11:00 pm, Charlottetown, Weather by CustomWeather, © 2017

Note: Actual official high and low records may vary slightly from our data, if they occured in-between our weather recording intervals... More about our weather records

Advertising

Charlottetown Weather History for the Previous 24 Hours

Scroll right to see more
 ConditionsComfort  
Time TempWeatherWind HumidityBarometerVisibility
11:00 pm
Fri, Feb 24
41 °FLight rain. Mostly cloudy.7 mph93%29.92 "Hg10 mi
10:00 pm39 °FLight rain. Mostly cloudy.8 mph87%29.93 "Hg8 mi
9:00 pm39 °FLight rain. Overcast.7 mph81%29.90 "Hg12 mi
8:00 pm41 °FOvercast.6 mph81%29.89 "Hg15 mi
7:00 pm41 °FPassing clouds.5 mph81%29.90 "Hg15 mi
6:00 pm41 °FPassing clouds.6 mph81%29.90 "Hg15 mi
5:00 pm45 °FPartly sunny.7 mph76%29.89 "Hg15 mi
4:00 pm45 °FPartly sunny.10 mph71%29.88 "Hg15 mi
3:00 pm48 °FPartly sunny.3 mph66%29.90 "Hg15 mi
2:00 pm46 °FScattered clouds.8 mph71%29.91 "Hg15 mi
1:00 pm46 °FScattered clouds.10 mph71%29.92 "Hg15 mi
12:00 pm46 °FPartly sunny.2 mph66%29.92 "Hg15 mi
11:00 am45 °FPartly sunny.6 mph76%29.92 "Hg15 mi
10:00 am43 °FPartly sunny.7 mph81%29.90 "Hg15 mi
9:00 am41 °FPartly sunny.9 mph87%29.88 "Hg15 mi
8:00 am39 °FPartly sunny.8 mph87%29.85 "Hg15 mi
7:00 am39 °FPassing clouds.10 mph93%29.80 "Hg15 mi
6:00 am39 °FPassing clouds.9 mph93%29.77 "Hg15 mi
5:33 am39 °FPartly cloudy.10 mph93%29.76 "Hg15 mi
4:00 am41 °FLow clouds.10 mph93%29.72 "Hg8 mi
3:00 am41 °FLow clouds.15 mph93%29.70 "Hg10 mi
2:00 am43 °FLow clouds.16 mph87%29.69 "Hg8 mi
1:26 am41 °FLow clouds.10 mph87%29.68 "Hg15 mi
12:48 am39 °FMostly cloudy.15 mph87%29.67 "Hg15 mi
12:00 am37 °FPartly cloudy.15 mph93%29.67 "Hg15 mi
Weather by CustomWeather, © 2017

See weather overviewHow to use our weather pages